FW9909 Weather Reports


Display with metric or nautical units.
time (UTC)temp
F
wind
direction
speed
MPH
gust
MPH
rain 1hr
in
rain 24hr
in
rain mn
in
humidity
%
barometer
mb
20260901081523 74 52 1.0 2.0 0.00 0.00 0.00 72 1017.5
20260901080522 74 68 1.0 3.0 0.00 0.00 0.00 72 1017.5
20260901075519 75 77 1.0 2.0 0.00 0.00 0.00 71 1017.6
20260901074518 75 65 1.0 2.0 0.00 0.00 0.00 71 1017.5
20260901073516 75 72 1.0 2.0 0.00 0.00 0.00 70 1017.5
20260901072534 75 57 1.0 2.0 0.00 0.00 0.00 70 1017.4
20260901071552 75 75 1.0 2.0 0.00 0.00 0.00 69 1017.4
20260901070531 76 57 1.0 2.0 0.00 0.00 0.00 68 1017.6
20260901065529 76 95 1.0 2.0 0.00 0.00 0.00 67 1017.5
20260901064527 76 87 1.0 2.0 0.00 0.00 0.00 67 1017.6
20260901063525 76 78 1.0 2.0 0.00 0.00 0.00 67 1017.6
20260901062523 77 56 1.0 2.0 0.00 0.00 0.00 67 1017.6
20260901061521 77 44 1.0 3.0 0.00 0.00 0.00 66 1017.7
20260901060559 77 85 1.0 2.0 0.00 0.00 0.00 66 1017.5
20260901055517 77 76 1.0 2.0 0.00 0.00 0.00 66 1017.5
20260901054515 77 37 0.0 2.0 0.00 0.00 0.00 65 1017.5
20260901053533 78 48 1.0 3.0 0.00 0.00 0.00 64 1017.5
20260901052532 78 30 1.0 2.0 0.00 0.00 0.00 64 1017.3
20260901051530 79 35 0.0 2.0 0.00 0.00 0.00 62 1017.3
20260901050548 80 48 1.0 2.0 0.00 0.00 0.00 60 1017.2
20260901045526 80 91 1.0 3.0 0.00 0.00 0.00 60 1017.3
20260901044524 80 74 0.0 2.0 0.00 0.00 0.00 60 1017.3
20260901043522 80 16 0.0 2.0 0.00 0.00 0.00 60 1017.3
20260901042520 80 337 0.0 2.0 0.00 0.00 0.00 59 1017.2
20260901041519 81 22 0.0 2.0 0.00 0.00 0.00 58 1017.2
20260901040517 81 33 1.0 2.0 0.00 0.00 0.00 57 1017.2
20260901035535 82 322 1.0 2.0 0.00 0.00 0.00 56 1017.2
20260901034533 82 322 0.0 2.0 0.00 0.00 0.00 56 1017.3
20260901033531 82 344 0.0 2.0 0.00 0.00 0.00 55 1017.3
20260901032529 83 325 0.0 2.0 0.00 0.00 0.00 54 1017.3
20260901031527 83 301 0.0 2.0 0.00 0.00 0.00 53 1017.1
20260901030526 84 286 1.0 2.0 0.00 0.00 0.00 52 1017.1
20260901025523 85 259 1.0 3.0 0.00 0.00 0.00 51 1017.0
20260901024522 85 272 1.0 3.0 0.00 0.00 0.00 51 1016.9
20260901023520 84 221 2.0 5.0 0.00 0.00 0.00 51 1016.7
20260901022518 84 64 1.0 2.0 0.00 0.00 0.00 52 1016.6
20260901021516 85 43 1.0 2.0 0.00 0.00 0.00 51 1016.4
20260901020534 85 47 0.0 2.0 0.00 0.00 0.00 51 1016.4
20260901015532 86 350 0.0 2.0 0.00 0.00 0.00 51 1016.1
20260901014550 86 28 1.0 2.0 0.00 0.00 0.00 50 1016.0
20260901013528 87 81 0.0 2.0 0.00 0.00 0.00 49 1015.9
20260901012547 87 3 0.0 1.0 0.00 0.00 0.00 49 1015.8
20260901011525 88 38 0.0 2.0 0.00 0.00 0.00 48 1015.6
20260901010523 89 85 0.0 2.0 0.00 0.00 0.00 46 1015.6
20260901005521 89 35 0.0 2.0 0.00 0.00 0.00 45 1015.5
20260901004519 90 15 0.0 2.0 0.00 0.00 0.00 44 1015.5
20260901003517 91 359 0.0 2.0 0.00 0.00 0.00 43 1015.4
20260901002516 92 351 0.0 1.0 0.00 0.00 0.00 42 1015.4
20260901001534 93 309 1.0 3.0 0.00 0.00 0.00 40 1015.3
20260901000552 94 42 1.0 3.0 0.00 0.00 0.00 39 1015.4
20260831235530 95 285 2.0 3.0 0.00 0.00 0.00 38 1015.3
20260831234548 96 293 2.0 4.0 0.00 0.00 0.00 37 1015.4
20260831233526 96 300 1.0 3.0 0.00 0.00 0.00 37 1015.2
20260831232544 97 277 2.0 4.0 0.00 0.00 0.00 35 1015.2
20260831231522 98 268 3.0 6.0 0.00 0.00 0.00 34 1015.3
20260831230621 99 211 2.0 5.0 0.00 0.00 0.00 34 1015.4
20260831225520 100 242 3.0 6.0 0.00 0.00 0.00 32 1015.3
20260831224517 101 284 2.0 4.0 0.00 0.00 0.00 31 1015.3
20260831223535 101 268 2.0 7.0 0.00 0.00 0.00 31 1015.4
20260831222533 101 86 2.0 6.0 0.00 0.00 0.00 31 1015.5
20260831221531 101 263 4.0 6.0 0.00 0.00 0.00 30 1015.5
20260831220529 102 255 3.0 7.0 0.00 0.00 0.00 30 1015.5
20260831215527 102 232 4.0 7.0 0.00 0.00 0.00 29 1015.5
20260831214525 102 266 3.0 6.0 0.00 0.00 0.00 29 1015.5
20260831213524 103 253 2.0 5.0 0.00 0.00 0.00 29 1015.5
20260831212522 102 221 3.0 6.0 0.00 0.00 0.00 29 1015.6
20260831211520 102 277 3.0 5.0 0.00 0.00 0.00 29 1015.8
20260831210518 102 241 3.0 6.0 0.00 0.00 0.00 29 1015.8
20260831205516 102 257 3.0 7.0 0.00 0.00 0.00 29 1016.0
20260831204554 101 228 3.0 6.0 0.00 0.00 0.00 30 1016.1
20260831203532 100 286 2.0 5.0 0.00 0.00 0.00 31 1016.3
20260831202530 102 24 2.0 5.0 0.00 0.00 0.00 29 1016.3
20260831201529 103 278 4.0 8.0 0.00 0.00 0.00 29 1016.3
20260831200547 102 247 3.0 8.0 0.00 0.00 0.00 29 1016.4
20260831195545 103 273 4.0 8.0 0.00 0.00 0.00 29 1016.6
20260831194523 102 242 4.0 7.0 0.00 0.00 0.00 30 1016.7
20260831193541 103 283 4.0 7.0 0.00 0.00 0.00 30 1016.8
20260831192519 101 355 2.0 4.0 0.00 0.00 0.00 32 1016.8
20260831191537 98 338 3.0 4.0 0.00 0.00 0.00 33 1016.9
20260831190516 100 270 4.0 6.0 0.00 0.00 0.00 32 1017.1
20260831185534 100 276 4.0 8.0 0.00 0.00 0.00 31 1017.1
20260831184532 101 254 4.0 8.0 0.00 0.00 0.00 31 1017.4
20260831183530 101 260 5.0 10.0 0.00 0.00 0.00 31 1017.5
20260831182548 101 255 5.0 12.0 0.00 0.00 0.00 32 1017.5
20260831181546 101 280 3.0 7.0 0.00 0.00 0.00 31 1017.6
20260831180525 99 274 3.0 7.0 0.00 0.00 0.00 32 1017.7
20260831175523 99 265 4.0 9.0 0.00 0.00 0.00 34 1017.9
20260831174520 98 279 3.0 7.0 0.00 0.00 0.00 36 1017.9
20260831173539 97 237 4.0 8.0 0.00 0.00 0.00 38 1018.0
20260831172517 97 274 5.0 9.0 0.00 0.00 0.00 39 1018.1
20260831171535 96 260 4.0 9.0 0.00 0.00 0.00 41 1018.3
20260831170553 95 263 3.0 6.0 0.00 0.00 0.00 43 1018.4
20260831165531 94 266 3.0 7.0 0.00 0.00 0.00 44 1018.6
20260831164529 94 266 4.0 8.0 0.00 0.00 0.00 45 1018.6
20260831163527 93 274 3.0 8.0 0.00 0.00 0.00 46 1018.8
20260831162525 93 234 3.0 6.0 0.00 0.00 0.00 47 1018.8
20260831161524 91 265 3.0 7.0 0.00 0.00 0.00 48 1018.8
20260831160522 90 244 3.0 9.0 0.00 0.00 0.00 49 1018.7
20260831155520 90 256 5.0 8.0 0.00 0.00 0.00 50 1018.8
20260831154538 89 254 4.0 7.0 0.00 0.00 0.00 51 1018.8
20260831153516 88 239 3.0 6.0 0.00 0.00 0.00 52 1018.8
20260831152534 88 259 3.0 8.0 0.00 0.00 0.00 52 1018.9
20260831151532 87 248 4.0 8.0 0.00 0.00 0.00 53 1018.8
20260831150530 87 236 3.0 6.0 0.00 0.00 0.00 54 1018.7
20260831145529 86 241 3.0 5.0 0.00 0.00 0.00 55 1018.8
20260831144527 85 265 4.0 9.0 0.00 0.00 0.00 56 1018.7
20260831143605 84 251 4.0 9.0 0.00 0.00 0.00 56 1018.7
20260831142543 84 242 4.0 8.0 0.00 0.00 0.00 57 1018.7
20260831141521 83 264 3.0 5.0 0.00 0.00 0.00 58 1018.7
20260831140519 82 184 2.0 5.0 0.00 0.00 0.00 59 1018.7
20260831135518 81 232 2.0 5.0 0.00 0.00 0.00 60 1018.7
20260831134515 80 196 1.0 3.0 0.00 0.00 0.00 62 1018.6
20260831133534 78 216 2.0 4.0 0.00 0.00 0.00 63 1018.6
20260831132552 77 243 2.0 6.0 0.00 0.00 0.00 65 1018.6
20260831131530 76 250 2.0 6.0 0.00 0.00 0.00 66 1018.4
20260831130528 76 227 2.0 5.0 0.00 0.00 0.00 67 1018.3
20260831125526 74 18 3.0 6.0 0.00 0.00 0.00 69 1018.1
20260831124524 73 122 1.0 4.0 0.00 0.00 0.00 71 1018.0
20260831123523 71 118 2.0 4.0 0.00 0.00 0.00 74 1017.9
20260831122521 71 130 2.0 6.0 0.00 0.00 0.00 74 1017.8
20260831121519 70 77 1.0 3.0 0.00 0.00 0.00 75 1017.6
20260831120517 71 99 2.0 5.0 0.00 0.00 0.00 74 1017.5
20260831115535 70 86 1.0 3.0 0.00 0.00 0.00 74 1017.4
20260831114533 70 148 2.0 5.0 0.00 0.00 0.00 74 1017.2
20260831113531 71 68 1.0 4.0 0.00 0.00 0.00 74 1017.1
20260831112529 71 35 3.0 6.0 0.00 0.00 0.00 74 1017.0
20260831111527 71 75 2.0 5.0 0.00 0.00 0.00 73 1017.0
20260831110526 71 101 2.0 4.0 0.00 0.00 0.00 73 1016.8
20260831105524 71 100 1.0 5.0 0.00 0.00 0.00 72 1016.7
20260831104542 71 33 3.0 7.0 0.00 0.00 0.00 72 1016.7
20260831103520 72 106 3.0 5.0 0.00 0.00 0.00 71 1016.8
20260831102518 72 89 2.0 6.0 0.00 0.00 0.00 71 1016.7
20260831101516 72 88 2.0 4.0 0.00 0.00 0.00 71 1016.7
20260831100534 72 127 3.0 5.0 0.00 0.00 0.00 71 1016.7
20260831095532 72 106 3.0 5.0 0.00 0.00 0.00 71 1016.7
20260831094551 72 34 2.0 4.0 0.00 0.00 0.00 71 1016.7
20260831093529 72 31 3.0 5.0 0.00 0.00 0.00 70 1016.7
20260831092527 73 75 2.0 3.0 0.00 0.00 0.00 70 1016.7
20260831091526 73 79 1.0 3.0 0.00 0.00 0.00 70 1016.7
20260831090543 73 76 1.0 3.0 0.00 0.00 0.00 70 1016.7
20260831085521 73 24 1.0 2.0 0.00 0.00 0.00 70 1016.6
20260831084519 73 105 1.0 3.0 0.00 0.00 0.00 71 1016.6
20260831083518 73 85 1.0 3.0 0.00 0.00 0.00 70 1016.5
20260831082515 73 86 1.0 2.0 0.00 0.00 0.00 70 1016.5